Wind_Speed
24 25 25 24 25 25 26 26 26 26 27 28 29 29 30 32 33 34 36 36 37 38 39 40 40 41 42 43 43 44 44 45 45 45 45 44 45 45 45 45 46 46 46
25 25 25 25 25 25 25 26 26 26 27 28 29 30 31 32 33 34 34 35 37 38 39 39 40 40 41 42 42 43 43 43 43 43 43 42 42 43 42 42 43 43 43
25 25 25 25 25 25 25 26 26 26 28 28 28 29 30 31 32 33 34 36 37 37 38 38 39 40 40 41 41 41 41 41 41 41 40 40 40 41 41 41 41 40 40
25 25 25 25 25 26 27 27 27 27 28 28 28 29 30 31 32 34 34 35 35 35 36 37 37 38 38 39 39 39 39 38 39 38 37 38 38 39 39 38 37 36 36
24 24 24 24 25 25 26 27 27 27 27 28 29 30 31 32 33 34 34 34 34 34 35 35 36 36 36 36 36 36 36 36 35 35 35 35 36 36 35 35 34 33 33
23 23 23 23 23 24 25 26 26 27 28 29 30 30 31 31 32 32 32 32 32 32 33 33 33 33 33 33 33 33 32 32 31 31 31 32 32 32 32 32 31 31 30
22 23 23 23 23 23 24 25 26 26 27 28 29 29 30 30 30 30 30 29 29 30 30 30 30 30 30 30 29 28 28 28 28 28 29 29 29 29 29 29 28 27 27
22 22 22 22 23 23 24 24 24 25 25 26 27 27 27 27 27 27 27 27 27 27 27 27 27 26 26 25 25 25 25 25 25 26 26 26 26 26 25 25 24 24 23
20 20 21 22 22 23 23 23 24 24 25 25 25 25 25 25 25 25 25 25 25 24 24 24 23 23 23 23 23 23 23 23 23 23 23 24 23 23 23 22 21 21 20
18 18 19 21 22 22 22 23 23 24 24 24 24 23 24 24 23 22 22 22 22 21 21 22 22 22 22 21 21 22 22 21 21 21 21 21 21 20 19 18 18 18 17
17 18 19 20 20 20 20 21 21 21 21 21 21 21 21 21 20 20 20 20 20 20 20 20 20 20 20 20 20 20 20 19 19 19 20 20 19 18 16 16 16 16 15
17 17 17 18 18 19 18 19 19 19 19 19 19 19 18 18 18 18 17 17 18 18 17 17 17 17 17 17 17 18 18 17 18 18 18 18 17 16 15 15 15 15 14
15 16 16 16 17 17 17 18 18 18 18 17 17 17 16 16 15 15 15 15 15 15 15 15 15 15 15 15 16 16 16 16 16 16 16 15 14 14 14 14 14 13 12
15 15 15 15 15 15 16 16 16 16 16 15 15 14 13 12 12 12 12 13 13 13 14 14 14 13 13 14 14 14 14 14 14 14 14 13 13 12 12 12 12 12 12
13 13 13 13 13 13 13 13 13 13 12 12 12 11 10 10 10 10 11 11 12 12 12 12 12 12 13 13 13 13 13 13 13 13 12 12 12 11 11 11 10 11 11
11 11 11 11 11 11 11 11 11 10 10 9 9 8 8 8 9 10 10 10 10 11 11 11 12 12 13 13 12 12 12 12 11 11 11 11 10 10 10 10 9 10 11
9 9 9 10 10 9 9 9 9 8 8 7 7 7 7 7 8 8 8 9 9 10 11 11 12 12 12 12 12 12 11 11 10 10 10 9 9 9 9 9 8 9 10
8 8 8 8 8 7 7 7 6 6 6 6 6 6 6 6 6 7 7 8 8 9 10 11 11 11 11 11 11 10 10 9 9 9 8 8 8 8 8 8 8 8 10
7 7 7 6 6 6 6 6 5 5 4 4 4 5 5 5 6 6 7 8 9 9 10 10 10 10 10 10 10 9 9 8 8 7 7 7 7 7 7 7 8 9 10
7 7 7 6 6 6 6 6 5 5 4 4 4 5 5 6 6 7 8 9 9 10 9 9 9 10 10 9 9 8 8 7 7 6 7 6 7 7 7 8 9 10 11
9 9 9 8 8 8 7 7 6 6 6 5 5 6 6 7 7 8 8 9 9 10 10 10 10 9 9 8 8 8 7 7 6 6 7 7 7 8 8 9 10 11 12
11 11 11 11 10 10 10 9 8 8 8 7 7 7 8 8 8 9 9 10 10 10 10 10 10 9 9 8 8 8 7 7 7 7 8 8 8 9 9 10 11 12 12
13 12 12 12 12 11 11 11 10 10 10 9 9 9 9 9 10 10 10 11 11 11 11 10 10 9 9 9 9 8 8 8 8 9 9 9 9 10 10 11 11 12 13
15 14 14 13 13 12 12 12 11 11 11 11 11 11 11 11 11 12 12 12 12 12 12 11 11 10 10 10 10 9 9 9 9 10 10 10 10 10 11 12 12 12 13
16 16 15 15 14 14 13 12 12 12 12 12 12 12 12 12 12 12 12 13 13 13 12 12 12 12 11 11 11 11 11 11 11 10 11 11 11 11 12 12 12 12 13
18 17 17 16 15 15 14 14 13 13 13 13 13 13 13 13 13 13 13 13 13 13 13 13 13 12 12 12 12 12 12 12 12 12 12 12 12 12 12 12 12 12 12
Wind_Direction
266 267 266 266 266 268 268 266 264 264 266 266 267 270 272 272 274 276 277 278 279 280 281 282 283 284 284 286 286 286 287 288 288 289 290 290 290 291 291 292 293 293 293
265 266 265 264 265 266 267 267 267 269 270 272 273 273 274 275 276 278 280 281 281 281 282 283 284 285 286 286 287 287 288 289 289 289 290 291 292 292 293 294 294 294 295
264 265 266 266 267 267 267 267 268 270 272 274 276 277 277 277 278 280 281 282 283 283 283 284 285 287 287 288 288 289 289 290 291 291 292 293 293 294 295 295 296 296 297
265 265 266 267 268 268 268 269 270 272 273 275 277 277 278 279 280 282 282 283 284 284 285 286 288 289 289 289 290 289 290 291 292 292 293 294 295 296 297 298 299 299 300
265 265 265 266 268 268 268 270 271 272 273 275 277 279 280 281 282 283 284 284 284 285 286 287 288 289 290 291 292 291 291 292 293 294 295 295 297 298 299 300 301 302 303
266 266 267 268 269 268 268 271 274 275 275 276 278 280 281 283 285 285 285 285 285 286 288 289 289 290 292 293 293 293 294 295 296 297 298 299 300 301 301 302 302 302 303
269 268 267 268 268 270 271 273 275 276 277 279 280 282 284 285 286 286 287 287 288 289 290 290 291 293 294 295 295 296 299 301 302 302 303 304 304 305 305 305 306 306 306
271 270 269 268 270 272 274 276 277 278 280 282 283 284 286 287 288 288 288 288 289 289 290 292 292 294 296 298 299 300 302 304 306 306 306 307 308 308 307 308 308 309 310
272 272 271 271 272 274 275 277 279 281 283 283 285 286 287 288 288 289 289 289 290 291 292 292 294 296 298 300 301 303 305 306 307 308 310 310 311 310 309 309 311 312 314
273 272 275 275 274 275 276 279 280 280 282 284 286 287 288 289 290 290 291 291 292 293 294 295 296 298 300 302 304 306 307 309 309 311 314 316 316 316 314 315 316 318 319
276 276 276 277 276 277 278 280 281 282 283 286 288 288 290 292 293 294 295 295 294 295 296 298 300 301 303 305 307 309 310 312 314 316 318 320 320 320 321 321 322 324 326
284 284 281 279 280 281 283 284 286 287 288 288 289 289 290 291 293 294 296 296 298 299 301 303 305 307 308 310 311 312 314 315 317 320 322 324 325 325 326 327 328 330 332
285 287 287 286 287 288 289 290 291 292 292 291 290 289 289 290 292 295 299 302 304 304 305 308 310 311 313 314 316 317 318 319 321 323 326 328 329 329 329 330 332 334 335
288 289 289 290 292 292 293 292 292 293 294 293 292 292 292 291 294 298 303 305 307 310 312 313 315 316 319 320 321 322 323 323 324 327 330 331 331 331 333 335 337 339 340
296 294 293 294 296 298 298 297 297 298 298 298 297 296 295 295 297 301 305 308 310 314 316 318 320 322 323 323 323 324 325 326 328 331 333 334 335 337 339 341 343 345 347
305 304 305 306 305 305 305 304 302 302 302 303 302 302 302 302 303 305 309 312 315 319 321 322 323 324 324 325 327 329 330 331 332 334 336 338 341 344 346 347 348 350 354
313 313 314 314 313 311 310 311 310 309 309 310 312 312 311 312 314 315 316 318 323 325 326 327 326 326 327 328 330 332 334 335 336 337 339 342 345 348 352 355 357 1 6
329 327 326 325 326 327 325 323 322 322 321 322 323 324 324 325 327 329 330 331 333 332 332 332 333 335 335 335 335 336 337 338 341 344 347 351 354 359 4 10 14 18 21
346 344 344 345 347 348 348 349 347 344 341 341 344 345 346 346 345 346 347 346 343 341 339 339 340 342 341 341 341 343 346 347 351 356 2 6 11 17 25 31 33 34 33
19 18 16 14 11 9 9 10 12 13 12 13 12 10 7 3 1 360 357 354 353 354 353 353 352 352 351 352 352 354 357 2 8 13 19 25 32 39 45 45 42 42 43
36 35 36 35 34 30 28 29 32 34 34 32 29 26 22 19 16 12 9 6 5 4 3 2 1 1 2 3 5 8 13 19 27 34 40 47 52 57 58 54 51 52 53
46 46 47 46 45 43 43 46 48 47 44 42 40 38 34 31 27 24 20 17 15 12 10 10 12 13 15 17 21 25 29 37 47 53 57 62 66 66 64 62 61 61 60
52 52 50 49 48 49 52 52 52 51 49 47 45 43 41 38 35 31 28 26 23 21 21 22 24 27 29 31 35 40 47 55 62 65 66 70 71 70 68 67 66 65 63
53 52 51 50 51 53 54 54 53 51 51 51 50 48 46 43 40 37 35 32 31 31 32 34 35 37 41 44 48 53 59 63 66 68 70 73 74 73 72 71 69 67 64
53 53 54 54 54 55 54 54 53 53 53 52 50 48 46 45 42 39 38 38 38 39 40 41 44 47 51 53 56 59 63 66 69 71 73 75 75 75 75 73 69 66 62
54 54 54 55 55 54 54 54 54 53 52 50 49 48 47 45 43 42 43 44 44 44 44 47 50 53 57 59 60 63 66 69 71 73 75 75 75 74 73 69 65 62 58
Height
5761 5761 5762 5762 5763 5764 5764 5765 5766 5766 5767 5767 5768 5768 5768 5768 5767 5767 5766 5765 5763 5762 5760 5758 5756 5754 5751 5749 5746 5743 5740 5737 5733 5730 5726 5723 5719 5716 5712 5708 5703 5699 5695
5754 5755 5755 5756 5756 5757 5757 5757 5758 5759 5759 5759 5759 5759 5759 5759 5758 5757 5756 5755 5753 5751 5750 5748 5746 5743 5741 5738 5735 5732 5729 5725 5722 5719 5715 5712 5708 5704 5700 5697 5692 5688 5684
5748 5748 5748 5749 5749 5750 5750 5750 5751 5751 5751 5751 5751 5751 5750 5750 5749 5748 5747 5745 5743 5742 5740 5738 5736 5733 5730 5728 5724 5721 5718 5715 5711 5708 5704 5701 5697 5693 5690 5686 5682 5677 5673
5740 5740 5741 5741 5741 5742 5743 5743 5743 5743 5743 5743 5743 5743 5742 5741 5740 5738 5737 5735 5733 5732 5730 5728 5726 5723 5720 5717 5714 5711 5708 5704 5701 5697 5694 5691 5687 5683 5679 5676 5672 5667 5663
5733 5733 5734 5734 5734 5735 5735 5735 5735 5736 5735 5735 5735 5734 5733 5732 5730 5729 5727 5725 5724 5722 5720 5718 5716 5713 5710 5707 5704 5701 5698 5695 5691 5688 5684 5681 5677 5674 5670 5666 5662 5658 5654
5726 5726 5727 5727 5727 5727 5728 5728 5728 5728 5727 5727 5726 5725 5724 5723 5721 5719 5718 5716 5715 5713 5711 5709 5706 5704 5701 5698 5695 5692 5689 5686 5682 5679 5676 5672 5668 5665 5661 5658 5654 5651 5647
5719 5719 5720 5720 5720 5720 5721 5721 5720 5720 5719 5719 5718 5717 5715 5714 5712 5711 5709 5708 5706 5704 5702 5700 5698 5695 5693 5690 5687 5684 5681 5677 5674 5671 5668 5664 5661 5657 5654 5650 5647 5644 5640
5712 5712 5713 5713 5713 5713 5713 5713 5713 5712 5712 5711 5710 5709 5707 5706 5704 5703 5701 5700 5698 5696 5694 5692 5690 5688 5685 5682 5680 5677 5674 5671 5667 5664 5661 5658 5654 5650 5647 5644 5641 5638 5634
5706 5706 5706 5707 5707 5707 5707 5706 5706 5705 5705 5704 5703 5701 5700 5699 5697 5696 5694 5693 5691 5689 5687 5685 5683 5681 5679 5676 5673 5671 5667 5664 5661 5658 5655 5652 5648 5645 5642 5639 5636 5633 5629
5701 5701 5700 5700 5700 5700 5700 5700 5699 5699 5698 5697 5696 5695 5693 5692 5691 5689 5688 5686 5684 5683 5681 5679 5677 5675 5672 5670 5667 5664 5662 5659 5656 5653 5650 5647 5644 5641 5637 5635 5632 5629 5626
5696 5696 5695 5695 5695 5694 5694 5693 5693 5692 5691 5690 5689 5688 5687 5686 5685 5683 5682 5680 5679 5677 5675 5673 5671 5669 5667 5664 5662 5659 5657 5654 5651 5649 5646 5643 5640 5637 5634 5631 5628 5626 5623
5691 5691 5690 5690 5689 5689 5688 5687 5686 5685 5685 5684 5683 5682 5681 5681 5680 5678 5677 5675 5673 5672 5670 5668 5666 5664 5662 5659 5657 5655 5652 5650 5647 5645 5642 5639 5636 5633 5631 5628 5626 5623 5620
5686 5686 5685 5684 5684 5683 5682 5682 5681 5680 5679 5678 5678 5677 5676 5676 5675 5673 5672 5671 5669 5667 5665 5663 5662 5660 5658 5656 5653 5651 5649 5646 5644 5641 5639 5636 5633 5631 5628 5626 5623 5621 5619
5682 5681 5681 5680 5679 5678 5678 5677 5676 5675 5674 5673 5673 5672 5671 5671 5670 5669 5668 5667 5665 5664 5662 5660 5658 5656 5654 5652 5650 5648 5646 5643 5641 5639 5636 5634 5631 5629 5627 5624 5622 5619 5617
5678 5677 5677 5676 5675 5674 5673 5673 5672 5671 5670 5669 5669 5668 5667 5667 5666 5666 5665 5664 5662 5661 5659 5657 5656 5654 5652 5650 5647 5645 5643 5641 5638 5636 5634 5632 5629 5627 5625 5623 5621 5618 5616
5675 5674 5674 5673 5672 5671 5670 5669 5668 5668 5667 5666 5666 5665 5665 5664 5664 5663 5662 5661 5659 5658 5657 5655 5653 5651 5649 5647 5645 5643 5641 5638 5636 5634 5632 5630 5628 5626 5624 5622 5620 5618 5616
5673 5672 5671 5670 5669 5668 5667 5667 5666 5665 5665 5664 5663 5663 5663 5662 5661 5660 5659 5658 5657 5656 5654 5652 5650 5648 5646 5644 5642 5640 5638 5636 5634 5633 5631 5629 5627 5625 5623 5621 5620 5618 5616
5672 5671 5670 5669 5668 5666 5666 5665 5664 5664 5663 5663 5662 5662 5661 5660 5659 5659 5658 5657 5655 5654 5652 5650 5648 5646 5644 5642 5640 5638 5637 5635 5633 5631 5629 5628 5626 5624 5623 5621 5620 5618 5616
5671 5670 5669 5668 5666 5665 5665 5664 5663 5663 5662 5662 5661 5661 5660 5659 5659 5658 5657 5655 5654 5652 5651 5649 5647 5645 5643 5641 5639 5637 5635 5633 5632 5630 5629 5627 5626 5624 5623 5622 5620 5619 5617
5671 5670 5668 5667 5666 5665 5664 5664 5663 5662 5662 5661 5661 5660 5660 5659 5658 5657 5656 5655 5653 5651 5649 5647 5645 5643 5641 5640 5638 5636 5634 5633 5631 5630 5629 5627 5626 5625 5624 5623 5621 5620 5618
5672 5671 5669 5668 5667 5666 5665 5664 5664 5663 5663 5662 5661 5661 5660 5659 5658 5657 5656 5654 5652 5651 5649 5647 5645 5643 5641 5639 5637 5636 5634 5633 5631 5630 5629 5628 5627 5626 5625 5624 5623 5622 5620
5674 5673 5671 5670 5669 5667 5667 5666 5665 5665 5664 5663 5662 5662 5661 5660 5659 5657 5656 5654 5652 5650 5648 5646 5645 5643 5641 5639 5638 5636 5635 5633 5632 5631 5630 5629 5628 5628 5627 5626 5625 5624 5622
5676 5675 5674 5672 5671 5670 5669 5668 5668 5667 5666 5665 5664 5663 5662 5661 5660 5658 5657 5655 5653 5651 5649 5647 5645 5643 5642 5640 5638 5637 5636 5635 5634 5633 5632 5631 5630 5630 5629 5628 5627 5626 5625
5679 5678 5677 5675 5674 5673 5672 5671 5670 5670 5668 5667 5666 5665 5664 5663 5661 5660 5658 5656 5654 5652 5650 5648 5646 5644 5643 5641 5640 5639 5637 5636 5635 5635 5634 5633 5633 5632 5631 5631 5630 5629 5628
5683 5682 5680 5679 5677 5676 5676 5675 5674 5672 5671 5670 5669 5667 5666 5665 5663 5662 5660 5658 5656 5654 5652 5650 5648 5646 5645 5643 5642 5641 5640 5639 5638 5637 5636 5636 5635 5635 5634 5634 5633 5632 5631
5687 5686 5684 5683 5681 5680 5679 5678 5677 5675 5674 5673 5671 5670 5669 5667 5666 5664 5662 5660 5658 5657 5655 5653 5651 5649 5648 5646 5645 5644 5643 5642 5641 5640 5640 5639 5639 5638 5637 5637 5636 5635 5633